Location: Coffee Ditch
(40.9640°N, 122.7500°W)
Time: 07:27:54
(UTC+00:00)

Cosmos 1867 - Pass Details

Date: 08 September 2024
Orbit: 772 x 802 km, 65.0° (Epoch: 05 October)

Event Time Altitude Azimuth Distance (km) Brightness Sun altitude
Exits shadow 13:04:03 - 212° (SSW) 3,243 6.3 -8.5°
Reaches altitude 10° 13:06:23 10° 212° (SSW) 2,351 5.6 -8.0°
Maximum altitude 13:11:48 86° 301° (WNW) 804 3.6 -7.0°
Drops below altitude 10° 13:17:18 10° 31° (NNE) 2,381 6.8 -6.0°
Sets 13:19:45 0° 32° (NNE) 3,316 7.5 -5.6°
